User: anonymous   Login
Location: Unspecified
(0.0000°N, 0.0000°E)
Time: 04:43:09
(UTC+01:00)
Language:

Iridium 33 - Orbit

View from above orbital plane
View from above orbital plane
View from above satellite
View from above satellite

Ground track
Ground track

The orbit data is extracted from the following two-line orbital elements,

1 24946U 97051C   17021.39114387  .00000092  00000-0  26130-4 0  9991
2 24946  86.3889 348.1786 0008338  16.6652 343.4816 14.33533362 13000
Epoch (UTC): 21 January 2017 09:23:14
Eccentricity: 0.0008338
inclination: 86.3889°
perigee height: 774 km
apogee height: 786 km
right ascension of ascending node: 348.1786°
argument of perigee: 16.6652°
revolutions per day: 14.33533362
mean anomaly at epoch: 343.4816°
orbit number at epoch: 1300

The dashed part of the orbit path shows where the satellite is in the earth's shadow,  

DLR